Simultaneous Nadir Overpasses (SNOs) Predictions

Prediction of SNOs between AQUA and METOP-B Satellite Orbit:

Table of predicted SNOs for the next 14.0 days since TLE Epoch: 11/23/2013
Index Date (AQUA) Time (AQUA) Lat,Lon (AQUA) SZA (AQUA ) Date (METOP-B) Time (METOP-B) Lat,Lon (METOP-B) SZA (METOP-B ) Distance(km) Time Diff (sec)
1 11/24/2013 19:26:27 -73.68, 62.91 85.71 11/24/2013 19:25:46 -73.69, 62.89 85.69 1.68 41
2 11/24/2013 20:15:56 73.75,-129.61 94.37 11/24/2013 20:16:24 73.76,-129.61 94.38 1.14 28
3 11/27/2013 15:00:39 -73.69, 129.34 85.17 11/27/2013 15:00:10 -73.71, 129.34 85.14 2.70 29
4 11/27/2013 15:50:08 73.77, -63.19 94.92 11/27/2013 15:50:48 73.78, -63.18 94.93 0.97 40
5 11/30/2013 09:45:13 73.07, 29.45 94.67 11/30/2013 09:44:07 72.99, 26.80 94.64 86.59 66
6 11/30/2013 10:34:51 -73.72,-164.27 84.66 11/30/2013 10:34:35 -73.72,-164.24 84.66 0.99 16
7 11/30/2013 11:24:20 73.80, 3.19 95.43 11/30/2013 11:25:13 73.78, 3.23 95.41 2.98 53
8 12/03/2013 05:19:33 73.59, 94.83 95.63 12/03/2013 05:18:21 73.54, 94.40 95.59 14.67 72
9 12/03/2013 06:09:01 -73.71, -97.79 84.24 12/03/2013 06:09:00 -73.72, -97.85 84.23 1.74 1
10 12/03/2013 06:58:30 73.80, 69.65 95.86 12/03/2013 06:59:37 73.82, 69.72 95.87 2.87 67
11 12/06/2013 00:53:42 73.66, 161.15 96.07 12/06/2013 00:52:42 73.66, 161.11 96.09 1.57 60
12 12/06/2013 01:43:09 -73.73, -31.36 83.86 12/06/2013 01:43:23 -73.75, -31.36 83.83 3.00 14




NCC Satellite Simultaneous Nadir Overpasses (SNOs) Prediction Service
